EN

Hourly Weather Pahomovo

Today, 9 March, Tuesday

Time Temperature Precipitation Wind Pressure Humidity
00:00 -16°C° 0 mm 2 mps 740 mmHg 93%
01:00 -16°C° 0 mm 2 mps 741 mmHg 93%
02:00 -17°C° 0 mm 2 mps 741 mmHg 94%
03:00 -18°C° 0 mm 2 mps 742 mmHg 94%
04:00 -19°C° 0 mm 3 mps 742 mmHg 94%
05:00 -21°C° 0 mm 3 mps 742 mmHg 95%
06:00 -21°C° 0 mm 3 mps 742 mmHg 96%
07:00 -21°C° 0 mm 3 mps 743 mmHg 95%
08:00 -19°C° 0 mm 3 mps 743 mmHg 95%
09:00 -19°C° 0 mm 3 mps 744 mmHg 95%
10:00 -19°C° 0 mm 4 mps 744 mmHg 94%
11:00 -18°C° 0 mm 4 mps 744 mmHg 93%
12:00 -17°C° 0 mm 4 mps 745 mmHg 92%
13:00 -16°C° 0 mm 4 mps 745 mmHg 90%
14:00 -16°C° 0 mm 4 mps 745 mmHg 89%
15:00 -15°C° 0 mm 4 mps 745 mmHg 87%
16:00 -16°C° 0 mm 4 mps 746 mmHg 89%
17:00 -17°C° 0 mm 4 mps 746 mmHg 90%
18:00 -17°C° 0 mm 3 mps 746 mmHg 92%
19:00 -18°C° 0 mm 3 mps 747 mmHg 93%
20:00 -19°C° 0 mm 3 mps 748 mmHg 93%
21:00 -20°C° 0 mm 4 mps 748 mmHg 94%
22:00 -21°C° 0 mm 3 mps 748 mmHg 95%
23:00 -22°C° 0 mm 3 mps 749 mmHg 96%

Tomorrow, 10 March, Wednesday

Time Temperature Precipitation Wind Pressure Humidity
00:00 -24°C° 0 mm 3 mps 749 mmHg 97%
01:00 -25°C° 0 mm 3 mps 749 mmHg 97%
02:00 -26°C° 0 mm 3 mps 750 mmHg 97%
03:00 -27°C° 0 mm 3 mps 750 mmHg 97%
04:00 -27°C° 0 mm 3 mps 750 mmHg 97%
05:00 -29°C° 0 mm 3 mps 751 mmHg 97%
06:00 -30°C° 0 mm 3 mps 751 mmHg 97%
07:00 -29°C° 0 mm 3 mps 752 mmHg 96%
08:00 -29°C° 0 mm 4 mps 752 mmHg 96%
09:00 -29°C° 0 mm 4 mps 753 mmHg 95%
10:00 -27°C° 0 mm 4 mps 753 mmHg 94%
11:00 -24°C° 0 mm 3 mps 753 mmHg 92%
12:00 -23°C° 0 mm 3 mps 753 mmHg 91%
13:00 -22°C° 0 mm 3 mps 753 mmHg 90%
14:00 -23°C° 0 mm 4 mps 754 mmHg 89%
15:00 -22°C° 0 mm 4 mps 754 mmHg 88%
16:00 -22°C° 0 mm 3 mps 754 mmHg 90%
17:00 -23°C° 0 mm 3 mps 754 mmHg 92%
18:00 -24°C° 0 mm 3 mps 754 mmHg 94%
19:00 -24°C° 0 mm 2 mps 755 mmHg 94%
20:00 -24°C° 0 mm 2 mps 755 mmHg 93%
21:00 -25°C° 0 mm 2 mps 756 mmHg 93%
22:00 -26°C° 0 mm 2 mps 756 mmHg 93%
23:00 -26°C° 0 mm 2 mps 756 mmHg 92%

Day after tomorrow, 11 March, Thursday

Time Temperature Precipitation Wind Pressure Humidity
00:00 -26°C° 0 mm 2 mps 756 mmHg 92%
01:00 -27°C° 0 mm 2 mps 756 mmHg 91%
02:00 -27°C° 0 mm 2 mps 757 mmHg 91%
03:00 -27°C° 0 mm 2 mps 757 mmHg 91%
04:00 -27°C° 0 mm 2 mps 757 mmHg 90%
05:00 -27°C° 0 mm 2 mps 757 mmHg 90%
06:00 -27°C° 0 mm 2 mps 757 mmHg 90%
07:00 -26°C° 0 mm 2 mps 757 mmHg 90%
08:00 -25°C° 0 mm 2 mps 758 mmHg 89%
09:00 -24°C° 0 mm 2 mps 758 mmHg 89%
10:00 -21°C° 0 mm 2 mps 758 mmHg 88%
11:00 -20°C° 0 mm 2 mps 758 mmHg 86%
12:00 -18°C° 0 mm 2 mps 758 mmHg 85%
13:00 -17°C° 0 mm 2 mps 758 mmHg 85%
14:00 -16°C° 0 mm 2 mps 758 mmHg 84%
15:00 -15°C° 0 mm 2 mps 758 mmHg 84%
16:00 -15°C° 0 mm 1 mps 758 mmHg 86%
17:00 -16°C° 0 mm 1 mps 758 mmHg 89%
18:00 -17°C° 0 mm 1 mps 757 mmHg 91%
19:00 -18°C° 0 mm 1 mps 758 mmHg 91%
20:00 -19°C° 0 mm 1 mps 758 mmHg 92%
21:00 -19°C° 0 mm 1 mps 758 mmHg 92%
22:00 -20°C° 0 mm 1 mps 758 mmHg 92%
23:00 -20°C° 0 mm 1 mps 758 mmHg 92%

12 March, Friday

Time Temperature Precipitation Wind Pressure Humidity
00:00 -20°C° 0 mm 1 mps 758 mmHg 92%
01:00 -24°C° 0 mm 2 mps 758 mmHg 91%
02:00 -24°C° 0 mm 2 mps 758 mmHg 89%
03:00 -24°C° 0 mm 2 mps 758 mmHg 88%
04:00 -24°C° 0 mm 2 mps 758 mmHg 87%
05:00 -25°C° 0 mm 2 mps 758 mmHg 86%
06:00 -25°C° 0 mm 2 mps 758 mmHg 85%
07:00 -25°C° 0 mm 3 mps 758 mmHg 85%
08:00 -24°C° 0 mm 3 mps 758 mmHg 85%
09:00 -23°C° 0 mm 3 mps 758 mmHg 85%
10:00 -21°C° 0 mm 3 mps 758 mmHg 85%
11:00 -18°C° 0 mm 3 mps 758 mmHg 85%
12:00 -18°C° 0 mm 4 mps 758 mmHg 84%
13:00 -17°C° 0 mm 4 mps 758 mmHg 84%
14:00 -16°C° 0 mm 4 mps 758 mmHg 83%
15:00 -15°C° 0 mm 4 mps 758 mmHg 83%
16:00 -16°C° 0 mm 4 mps 757 mmHg 85%
17:00 -17°C° 0 mm 4 mps 757 mmHg 87%
18:00 -18°C° 0 mm 4 mps 757 mmHg 89%
19:00 -18°C° 0 mm 4 mps 757 mmHg 89%
20:00 -19°C° 0 mm 4 mps 757 mmHg 90%
21:00 -20°C° 0 mm 5 mps 757 mmHg 90%
22:00 -20°C° 0 mm 5 mps 756 mmHg 88%
23:00 -20°C° 0 mm 5 mps 756 mmHg 87%

13 March, Saturday

Time Temperature Precipitation Wind Pressure Humidity
00:00 -21°C° 0 mm 6 mps 756 mmHg 86%
01:00 -20°C° 0 mm 6 mps 756 mmHg 85%
02:00 -18°C° 0 mm 6 mps 755 mmHg 85%
03:00 -18°C° 0 mm 6 mps 755 mmHg 84%
04:00 -18°C° 0 mm 7 mps 755 mmHg 83%
05:00 -18°C° 0 mm 7 mps 754 mmHg 82%
06:00 -17°C° 0 mm 7 mps 754 mmHg 81%
07:00 -17°C° 0 mm 8 mps 754 mmHg 80%
08:00 -16°C° 0 mm 8 mps 753 mmHg 79%
09:00 -15°C° 0 mm 8 mps 753 mmHg 78%
10:00 -13°C° 0 mm 8 mps 753 mmHg 79%
11:00 -12°C° 0 mm 9 mps 753 mmHg 79%
12:00 -12°C° 0 mm 9 mps 753 mmHg 80%
13:00 -11°C° 0 mm 9 mps 753 mmHg 81%
14:00 -11°C° 0 mm 9 mps 753 mmHg 83%
15:00 -11°C° 0 mm 8 mps 752 mmHg 84%
16:00 -11°C° 0 mm 8 mps 752 mmHg 84%
17:00 -11°C° 0 mm 7 mps 752 mmHg 84%
18:00 -11°C° 0 mm 7 mps 752 mmHg 84%
19:00 -11°C° 0 mm 7 mps 751 mmHg 85%
20:00 -10°C° 0 mm 6 mps 751 mmHg 85%
21:00 -10°C° 0 mm 6 mps 751 mmHg 85%
22:00 -10°C° 0 mm 6 mps 751 mmHg 87%
23:00 -10°C° 0 mm 6 mps 751 mmHg 88%

14 March, Sunday

Time Temperature Precipitation Wind Pressure Humidity
00:00 -10°C° 0 mm 6 mps 750 mmHg 90%
01:00 -10°C° 0 mm 6 mps 750 mmHg 91%
02:00 -10°C° 0 mm 6 mps 750 mmHg 92%
03:00 -9°C° 0 mm 6 mps 749 mmHg 92%
04:00 -10°C° 0 mm 6 mps 749 mmHg 92%
05:00 -10°C° 0 mm 6 mps 749 mmHg 92%
06:00 -10°C° 0 mm 6 mps 749 mmHg 92%
07:00 -9°C° 0 mm 6 mps 749 mmHg 92%
08:00 -9°C° 0 mm 7 mps 748 mmHg 92%
09:00 -9°C° 0 mm 7 mps 748 mmHg 92%
10:00 -8°C° 0.1 mm 7 mps 748 mmHg 92%
11:00 -7°C° 0.1 mm 7 mps 748 mmHg 92%
12:00 -6°C° 0.1 mm 8 mps 748 mmHg 92%
13:00 -6°C° 0.1 mm 7 mps 748 mmHg 93%
14:00 -4°C° 0.1 mm 7 mps 748 mmHg 93%
15:00 -4°C° 0.1 mm 7 mps 748 mmHg 93%
16:00 -4°C° 0.1 mm 7 mps 748 mmHg 92%
17:00 -4°C° 0.1 mm 7 mps 748 mmHg 92%
18:00 -5°C° 0.1 mm 6 mps 748 mmHg 91%
19:00 -5°C° 0 mm 6 mps 748 mmHg 91%
20:00 -5°C° 0 mm 6 mps 748 mmHg 91%
21:00 -5°C° 0 mm 6 mps 748 mmHg 91%
22:00 -6°C° 0 mm 6 mps 748 mmHg 87%
23:00 -6°C° 0 mm 6 mps 748 mmHg 84%
Show more

We Need Your Consent

Meteoprog and our Service Providers may store and access personal data such as cookies, device identifiers or other similar technologies on your device and process such data to personalise content and ads, as well as provide social media features and to analyse the traffic.

  • Store and/or access information on your device

    Cookies, device identifiers or other information can be stored or accessed on your device for the purposes indicated above.

  • Personalised ads and content, ad and content measurement, audience insights, and products development

    Ads and content can be personalised based on a profile. More data can be added to better personalise ads and content. Ad and content performance can be measured. Insights about the audience who saw the ads and content can be derived. Such data can be used to develop or improve user’s experience, systems and software.

By clicking ‘I Agree’ you will allow the use of indicated cookies, device identifiers, web beacons or other similar technologies. Your settings can be changed in the browser on your device.

For certain purposes, legitimate interests may be relied on, rather than consent. You can read more about this in our Privacy and Cookie Policy.